sat.trackr.live / text

‹ back to catalog

FLOCK 4H-28

NORAD 66731 · 2025-276BT

PAYLOAD ACTIVE UNKNOWN

§ Identity

Operator
Country
US
Launch date
2025-11-28
Launch site
AFWTR
Launch vehicle
Mass (kg)
RCS (m²)

Purposes: earth_obs

External: N2YO · Heavens-Above · Gunter

§ Orbital elements

Epoch: 2026-06-29T03:46:44.710752Z

Period
94.75 min
Inclination
97.4183°
Eccentricity
0.0003532
Mean motion
15.19776403 rev/d
Perigee alt
504.1 km
Apogee alt
508.9 km
Semi-major
6,884.7 km
B*
2.7018e-4
RAAN
253.3532°
Arg perigee
349.8489°
Mean anomaly
10.2674°
Rev number
3,223

§ Raw data

FLOCK 4H-281 66731U 25276BT  26180.15746193  .00005715  00000+0  27018-3 0  99962 66731  97.4183 253.3532 0003532 349.8489  10.2674 15.19776403 32231

JSON: /api/v1/satellites/66731 · /tle

For live sub-satellite position, see the globe view (requires WebGL).

§ Visibility from observer

Set your observer location to see the next 7 days of passes ≥ 10°. The values pass through the URL so the page stays shareable.

No JS? Fill the form by hand. The geolocation button needs JavaScript.